Theta_e
325 328 331 331 331 332 332 332 331 331 330 329 329 331 332 332 331 330 331 332 330 329 329 329 327 327 328 328 328 329 328 327 327 326 325 324 323 323 323 324 324 324 324 322 321 324 321 320 321 321 321 321 320 318 318 319 319 319 318 320 317 313 312 313 313 316 314 313 313 315 316 320 322 319 316 313 311 309 310 310 309 308 308 308 308
327 328 330 331 331 331 332 331 331 328 329 330 330 331 332 332 331 331 332 330 329 329 329 328 327 328 328 328 328 327 326 324 322 322 321 321 321 320 320 320 320 322 323 321 320 320 320 320 319 319 319 319 319 317 317 319 316 316 315 315 316 313 310 312 312 312 310 309 309 312 312 315 319 317 315 311 309 308 308 308 307 306 306 306 307
325 327 329 330 331 331 331 330 330 330 330 330 331 331 331 331 331 332 331 329 328 329 328 327 327 329 330 329 326 325 326 324 321 321 321 318 319 319 318 318 319 319 319 321 318 318 317 317 317 316 317 318 315 314 314 313 313 313 313 313 311 312 311 312 310 311 307 309 313 312 308 308 311 312 313 311 308 306 306 307 306 304 304 305 305
323 325 327 329 330 330 330 330 330 330 330 330 330 330 330 331 331 331 330 329 328 330 329 328 329 329 329 328 326 323 321 322 320 319 317 316 316 317 317 316 317 317 317 317 316 316 316 316 316 315 315 316 314 312 311 311 311 311 311 312 309 307 306 307 311 309 309 308 307 309 310 308 304 305 306 309 307 305 303 303 305 304 303 303 303
323 325 326 328 328 329 329 330 330 330 330 330 330 330 331 331 331 331 330 330 330 331 328 330 331 328 327 326 324 322 321 319 317 316 317 318 316 314 314 315 315 316 316 316 317 314 315 315 315 314 314 313 313 311 310 310 309 309 309 308 307 304 304 305 307 309 308 310 309 307 305 304 303 303 303 303 306 303 302 301 303 302 302 302 301
324 325 326 327 328 329 329 330 330 330 330 330 331 331 331 330 330 330 330 330 329 328 330 330 329 325 323 321 319 318 316 316 314 313 313 312 312 313 313 314 314 314 314 315 316 316 314 314 314 313 312 312 312 310 309 309 309 308 308 307 306 306 305 304 303 307 307 307 307 306 306 301 299 300 299 296 303 303 302 300 299 300 301 300 300
324 326 327 327 328 328 328 329 329 329 330 331 331 330 330 330 330 331 330 329 328 328 330 330 326 324 323 322 320 318 317 317 317 315 312 312 312 311 311 312 312 313 313 314 314 315 313 313 313 312 312 311 312 309 308 308 308 308 309 307 306 306 304 302 301 302 303 304 304 304 304 303 301 298 295 296 293 297 299 298 296 298 299 299 298
323 324 326 327 328 328 327 329 329 330 331 330 330 330 330 330 330 330 330 329 328 328 328 329 326 324 323 321 321 318 317 315 314 313 313 313 310 310 310 310 311 311 311 312 313 314 313 312 312 312 311 311 311 308 307 306 307 307 307 306 306 305 303 301 300 300 299 299 303 301 301 301 299 298 297 296 295 291 291 295 296 296 297 298 298
323 322 324 327 327 328 329 329 330 330 330 329 329 330 330 330 330 329 328 327 327 328 328 327 327 324 322 321 319 318 316 315 315 316 312 311 308 308 308 308 309 310 310 310 311 312 314 310 310 310 309 310 312 308 307 307 306 304 303 303 303 303 303 302 300 299 298 297 298 297 298 297 296 296 296 296 293 287 287 289 290 294 295 296 297
323 323 325 327 328 329 330 330 329 330 330 330 330 330 329 329 328 327 326 326 326 327 327 326 325 324 321 319 317 316 316 313 312 310 309 308 307 306 306 306 307 308 308 309 309 309 309 310 309 309 309 310 310 306 306 305 304 304 303 302 302 301 301 301 300 299 299 298 297 296 295 294 294 293 293 293 292 292 288 288 290 290 289 293 296
322 324 325 327 329 329 329 328 329 329 329 329 329 329 329 328 327 326 326 326 325 326 326 325 324 323 320 319 317 315 313 311 308 307 307 306 305 305 305 305 305 305 307 307 307 308 309 310 308 308 309 311 308 305 304 304 303 302 302 301 301 300 299 299 299 299 298 297 296 296 295 294 292 291 291 292 291 289 289 288 290 291 291 290 293
323 324 325 327 327 327 328 327 327 327 328 328 327 328 327 326 325 323 323 323 322 324 325 324 323 322 321 320 317 314 312 309 307 306 306 305 304 304 304 304 304 305 305 305 305 306 307 306 308 306 306 305 304 304 304 303 303 302 301 300 299 299 300 300 297 296 296 296 295 295 295 295 294 293 293 292 291 291 290 288 289 290 290 290 294
323 324 325 325 325 325 325 326 326 326 326 326 326 325 323 322 322 321 319 319 319 320 320 320 321 321 321 319 316 314 311 309 308 306 305 305 304 303 303 303 303 303 303 304 304 305 306 305 305 305 304 305 304 304 303 302 302 301 300 299 299 298 298 297 296 296 296 295 294 295 294 294 293 294 294 293 292 292 291 288 289 290 287 289 290
323 325 325 325 325 325 326 325 326 325 325 325 323 321 320 320 319 318 315 315 316 316 316 317 318 319 319 317 315 313 310 309 308 306 306 305 305 304 303 303 302 302 303 303 303 305 305 305 305 304 305 305 305 304 303 302 301 300 299 298 298 297 297 296 296 296 296 295 295 294 294 293 293 293 293 292 291 291 289 289 289 289 288 288 289
323 324 324 324 325 325 325 325 325 324 324 322 320 319 318 317 317 315 313 313 313 313 313 313 314 315 315 315 313 312 311 309 307 307 305 305 304 304 303 303 303 303 303 303 305 303 304 303 303 303 303 303 303 303 303 302 302 301 300 299 298 297 297 297 296 295 295 294 294 295 295 294 293 293 292 292 292 291 291 290 289 287 286 286 287
323 324 323 324 324 325 325 325 324 323 321 320 318 317 317 315 314 313 312 311 312 312 311 312 312 312 312 311 311 312 312 309 308 307 305 305 304 304 303 302 303 302 303 303 303 303 302 302 302 302 302 302 302 302 301 301 300 299 298 298 297 300 296 295 295 295 294 294 294 294 294 293 294 293 293 292 292 292 292 291 291 289 286 284 287
323 323 323 323 324 324 324 324 323 321 319 318 317 316 315 313 312 311 310 310 310 310 310 310 311 311 310 310 310 309 308 307 306 305 305 306 305 304 303 302 302 302 303 303 302 302 301 301 301 301 301 301 301 301 301 300 300 299 298 297 296 296 297 295 295 294 294 294 294 294 293 293 293 293 293 293 292 292 292 291 291 290 289 285 285
323 324 324 323 323 323 323 323 322 320 318 317 316 315 314 313 312 310 309 308 309 309 309 309 309 309 308 308 308 308 308 307 307 306 306 306 305 304 303 302 301 303 303 303 302 302 302 304 301 301 300 301 300 300 300 300 300 299 298 297 297 297 296 296 296 295 294 295 295 293 293 292 293 291 291 292 292 291 291 291 291 291 290 288 286
322 322 322 322 322 322 322 321 321 319 317 316 315 314 312 312 311 310 308 309 309 309 309 309 309 308 308 308 307 307 307 306 307 307 307 305 304 302 301 301 301 302 302 300 300 300 300 300 300 300 300 300 300 300 300 299 299 298 298 297 297 296 295 295 295 295 295 294 293 292 292 292 292 291 290 290 291 292 291 290 291 291 291 289 288
321 321 321 322 322 322 321 320 318 317 316 315 314 312 311 311 311 310 309 308 308 308 309 308 308 308 307 307 307 307 307 306 306 306 305 304 303 301 300 299 299 300 299 299 299 299 299 299 299 299 299 299 299 299 299 298 297 297 297 296 296 295 295 294 294 295 295 293 292 292 292 291 290 290 289 290 289 291 292 290 291 291 290 290 290
321 321 321 321 321 321 320 319 318 317 316 314 313 311 310 310 309 309 308 308 307 308 308 307 307 307 307 306 306 305 305 305 305 305 304 302 301 301 299 299 299 298 298 298 298 298 298 299 299 300 298 298 298 298 298 298 297 296 296 296 295 295 295 294 295 293 294 293 293 292 291 291 290 289 289 289 289 289 290 290 291 290 289 289 289
321 321 321 321 321 320 319 318 317 316 314 313 312 311 310 309 308 308 308 308 308 307 307 307 307 307 306 306 305 304 304 304 304 303 302 300 299 298 299 298 297 297 298 298 298 298 297 297 297 297 297 297 298 298 297 298 297 296 296 297 295 295 294 293 293 293 293 294 291 291 290 290 290 288 288 288 289 288 289 288 288 290 288 289 289
321 321 321 320 320 319 318 317 316 315 313 312 311 310 309 308 309 309 308 308 309 308 307 307 306 306 306 305 304 303 303 303 302 301 300 299 298 298 299 297 296 296 297 297 296 296 296 296 296 296 296 296 296 296 296 296 296 295 295 295 295 294 294 293 292 292 291 291 291 291 289 289 291 288 288 287 288 288 289 288 288 289 288 289 289
321 320 320 320 320 319 317 316 315 313 312 311 311 310 310 309 309 309 308 308 308 307 307 306 306 305 304 304 303 302 302 302 300 299 298 298 297 297 298 296 296 296 296 296 296 296 296 295 295 295 295 295 295 295 295 295 295 295 295 294 294 293 293 293 292 292 291 290 289 289 289 289 288 287 287 287 287 287 287 288 288 288 288 288 289
319 319 319 319 318 317 316 316 314 313 312 311 310 310 309 309 309 308 308 308 308 307 306 305 305 304 303 302 302 301 301 300 299 299 298 297 297 296 297 295 295 295 295 295 296 295 294 294 294 293 293 293 293 294 294 294 294 294 294 294 294 293 293 293 293 293 297 291 292 289 289 288 287 286 286 287 287 286 287 288 287 287 288 289 290
318 318 318 317 317 317 316 315 314 313 312 311 310 309 309 309 308 308 307 307 307 306 305 305 304 303 302 301 301 301 300 299 299 298 298 297 297 296 295 295 295 294 293 294 294 294 294 292 292 292 292 291 291 292 292 292 293 294 294 294 294 293 293 293 292 292 292 291 290 289 289 289 287 286 286 287 286 286 287 287 287 288 288 288 288
317 317 317 317 316 316 316 315 314 312 311 311 310 308 308 308 308 308 307 307 306 305 305 304 303 302 301 301 300 301 300 299 299 298 297 296 296 295 295 294 295 294 293 292 292 292 293 292 291 291 291 291 291 291 290 291 291 292 294 294 293 292 292 291 291 292 292 291 290 290 290 288 288 288 287 287 287 287 289 288 290 288 288 287 288
317 317 316 316 315 315 315 314 312 311 311 311 310 309 308 308 307 306 306 305 305 305 304 303 303 301 301 300 300 300 300 299 298 298 296 296 295 295 294 295 294 292 292 292 291 292 292 291 291 291 291 292 291 290 289 289 290 292 294 293 293 292 292 291 291 291 291 291 290 290 289 289 288 289 289 288 288 288 289 289 289 289 289 288 287
316 316 316 316 315 315 314 313 312 311 310 309 309 308 308 308 307 306 306 305 305 305 304 303 302 301 300 300 300 300 299 300 298 297 296 295 295 294 294 294 293 293 293 291 290 290 290 289 289 290 290 291 291 291 291 290 290 290 290 293 293 293 292 291 290 290 290 290 291 291 290 289 295 296 297 296 295 295 291 289 289 288 289 288 287
315 316 316 316 315 315 314 313 311 310 309 308 308 308 308 307 306 306 305 305 305 305 304 302 301 301 300 300 300 300 299 298 297 296 295 295 294 294 293 292 292 291 291 291 289 290 289 289 289 289 289 290 291 291 294 295 297 291 290 291 293 292 292 291 291 291 290 291 291 291 295 298 297 298 298 296 294 294 295 293 291 289 288 287 287
316 316 316 316 316 315 314 312 310 309 309 308 308 308 308 307 306 306 306 306 305 304 303 302 301 301 300 300 300 299 298 298 297 296 295 295 294 293 292 291 291 291 291 292 289 288 288 288 288 288 288 290 290 291 293 292 292 295 291 291 292 291 292 291 291 290 289 291 291 289 287 294 297 297 294 295 293 293 293 293 294 294 294 290 287
316 316 316 315 315 314 314 312 310 309 309 309 308 308 308 307 307 306 306 306 305 304 302 302 302 301 301 300 299 298 298 297 297 296 295 294 294 293 292 291 291 290 291 289 288 287 287 287 288 288 288 289 289 294 291 292 293 294 297 293 291 292 292 291 290 289 291 291 289 288 289 289 291 292 293 290 292 293 292 292 292 293 292 292 292
316 316 315 315 315 315 314 313 311 310 310 309 310 308 308 308 307 307 307 306 304 303 303 302 302 301 300 299 298 298 297 297 297 296 295 294 293 292 292 291 290 290 289 288 287 287 286 286 287 287 288 288 288 293 292 293 293 293 293 293 291 290 292 290 289 289 289 289 289 290 290 290 289 296 295 289 288 289 292 293 293 293 292 293 290
317 317 316 316 316 315 315 313 312 311 311 310 310 309 308 308 308 307 306 305 304 303 303 302 302 301 300 299 298 298 297 296 296 296 295 293 293 292 291 291 291 289 287 287 286 286 286 286 287 287 287 287 288 293 292 292 292 292 292 293 290 290 290 290 289 289 289 288 288 288 287 290 289 289 288 289 289 288 287 288 287 287 287 290 291
316 316 316 316 316 315 314 312 311 311 310 309 308 307 308 308 308 306 306 305 304 303 303 302 301 300 299 298 298 297 296 296 296 295 294 293 292 291 291 291 289 288 287 286 286 285 286 288 286 286 287 287 289 292 291 291 291 291 291 292 290 291 290 288 288 289 289 288 287 287 286 288 288 288 290 291 289 288 287 287 287 287 287 287 287
316 316 316 316 315 314 313 312 312 311 310 310 308 308 307 307 307 306 305 304 304 303 303 302 301 300 299 299 298 297 297 296 296 295 294 292 292 291 290 290 289 287 286 286 286 286 286 286 286 286 287 285 287 291 291 291 291 291 292 291 289 289 289 288 288 288 289 288 288 287 286 288 289 287 292 291 291 290 286 286 286 286 286 287 287
317 317 316 317 316 315 314 313 311 311 309 309 308 308 307 306 306 305 305 304 303 302 302 302 301 300 300 299 299 298 297 297 296 295 293 292 292 291 290 291 288 287 287 286 286 285 286 285 286 286 286 284 286 290 291 291 290 290 291 289 289 289 288 287 287 288 287 288 288 291 291 288 288 287 292 290 290 292 286 286 285 285 286 286 286
317 317 316 315 315 315 313 312 310 309 309 308 308 307 306 305 305 305 304 303 302 302 302 302 301 301 300 299 299 299 298 297 296 295 294 293 292 292 291 291 289 287 286 286 286 286 284 286 286 285 287 287 286 290 291 291 291 291 290 287 287 287 286 286 286 286 286 286 287 296 296 289 287 288 291 289 290 290 286 285 285 285 284 285 286
316 315 314 314 314 314 313 312 310 308 308 308 308 307 306 305 305 303 303 302 302 302 302 302 301 301 300 299 299 299 298 297 296 295 294 293 292 292 292 291 289 288 288 287 289 286 285 285 284 285 295 288 286 289 291 290 291 291 290 286 287 286 286 284 284 285 285 286 286 290 293 292 290 291 289 289 289 290 285 284 284 283 284 284 285
315 314 314 314 313 312 311 310 308 308 308 308 307 307 306 305 304 303 302 302 302 302 302 302 301 301 299 299 299 300 299 298 296 295 294 294 294 293 292 291 290 289 289 288 289 288 287 285 286 289 291 288 288 287 290 290 291 291 291 288 286 286 286 284 284 288 287 285 285 286 290 290 289 289 289 289 289 290 286 285 284 283 284 284 286
314 313 309 312 312 312 311 310 309 308 308 308 307 306 305 305 304 302 302 302 303 303 302 302 301 300 299 299 299 299 298 298 297 295 295 294 294 293 292 291 290 290 289 288 289 288 288 286 286 288 288 287 289 287 290 290 291 291 291 290 284 283 282 282 282 286 283 284 285 286 286 290 289 289 289 289 289 290 290 288 284 284 284 288 288
312 310 310 312 311 311 310 309 308 307 308 307 307 306 305 304 303 302 303 303 302 302 302 301 300 299 299 299 299 299 299 298 297 296 294 293 292 293 292 291 291 290 290 290 289 290 289 287 287 289 289 287 291 295 286 290 290 290 290 290 286 286 285 284 283 283 282 283 284 284 286 289 289 289 289 289 289 289 289 288 287 288 288 288 288
310 309 310 311 310 310 309 308 307 307 307 307 307 305 304 304 303 303 303 302 302 302 301 301 299 299 299 299 299 298 298 298 297 296 294 293 292 292 292 292 291 291 291 290 289 289 287 287 287 288 289 289 287 292 293 289 290 290 290 290 290 287 289 289 283 286 284 284 284 285 287 291 289 289 289 289 289 289 290 286 288 288 288 288 288
311 311 311 310 310 310 309 307 306 307 307 307 306 305 304 303 303 304 302 301 301 301 300 299 299 298 298 298 299 298 298 297 297 296 295 293 292 293 293 293 293 292 292 291 290 289 287 287 289 289 291 290 289 288 292 292 289 289 289 289 289 289 289 286 286 285 284 283 285 284 288 289 289 289 289 289 289 289 287 288 288 288 288 288 286
309 310 309 310 310 308 307 305 305 306 307 307 307 305 303 303 303 301 300 300 300 300 299 298 298 298 298 298 298 298 297 297 297 296 295 294 294 294 293 292 293 292 291 291 290 289 288 288 288 290 291 290 290 288 286 289 290 290 289 289 288 288 289 289 286 286 288 287 289 289 288 288 288 289 289 289 289 289 288 288 288 288 290 283 284
310 309 308 310 309 308 305 304 304 305 306 306 306 306 303 303 302 301 300 300 299 299 298 298 298 297 297 298 297 297 297 297 296 296 296 295 295 294 294 292 292 292 291 291 290 289 289 289 289 290 291 290 289 286 285 285 291 291 290 289 289 289 290 290 290 286 289 289 288 288 289 288 288 289 287 285 284 286 288 288 288 289 283 282 283
309 309 307 308 308 305 303 303 303 304 305 305 305 305 305 303 300 301 300 299 298 298 298 297 297 297 297 297 296 296 296 296 296 296 296 296 295 294 294 293 292 291 291 291 291 291 290 290 289 290 290 289 288 286 285 284 284 284 284 287 286 286 291 290 288 285 288 286 287 288 287 287 288 288 287 288 287 287 285 285 283 283 283 282 283
309 308 308 308 306 304 302 302 302 303 304 304 304 304 303 300 300 300 299 298 298 297 297 297 296 296 296 296 296 293 295 295 295 295 295 295 295 295 293 292 292 292 291 291 292 291 291 291 291 290 290 289 287 286 285 285 285 284 284 282 282 286 283 282 282 283 283 286 285 288 286 284 284 284 283 283 282 283 282 283 283 282 283 283 286
307 306 307 307 305 303 303 302 302 303 303 303 303 302 300 299 299 299 299 298 297 296 297 296 296 296 295 295 295 295 296 296 295 295 295 296 295 295 294 294 294 294 294 293 293 292 292 292 292 291 290 289 288 287 288 288 288 288 286 285 284 283 283 281 287 289 286 284 283 283 284 284 282 282 281 282 281 282 282 282 282 283 283 282 282
307 307 307 306 305 304 302 302 302 302 302 302 301 299 298 298 299 299 298 297 296 296 295 295 295 295 294 294 294 295 296 296 295 295 294 293 292 294 295 295 294 294 293 293 293 293 293 292 292 292 293 292 290 291 290 289 289 288 288 287 287 287 287 285 288 288 287 281 280 280 280 281 281 281 280 278 279 281 280 280 282 284 282 282 282
306 305 304 304 303 303 302 301 301 301 301 301 300 298 297 298 298 298 298 297 296 295 295 294 294 294 293 294 294 295 295 296 295 295 294 293 291 290 289 291 293 293 292 292 291 292 292 292 293 292 292 292 292 291 290 290 289 289 288 288 288 288 288 288 288 283 280 279 279 280 281 279 278 280 278 279 279 277 277 277 279 280 281 283 282
Wind_Speed
4 5 5 6 8 7 7 7 8 8 7 7 7 6 6 6 6 6 4 5 7 7 6 7 7 6 6 6 7 5 6 6 6 5 6 6 5 5 5 5 4 4 4 4 5 5 5 5 4 3 3 5 6 5 2 3 4 3 3 5 5 7 7 7 8 3 4 5 4 4 4 3 7 9 10 9 10 8 7 9 8 9 9 10 9
6 6 7 7 8 9 8 8 10 10 8 8 9 7 7 6 6 6 4 3 3 5 6 5 4 5 6 6 7 5 6 6 6 5 5 5 5 5 5 4 4 5 4 4 5 6 6 6 5 5 4 5 4 2 3 5 7 7 3 5 5 7 6 7 8 3 5 2 2 5 5 3 4 8 10 9 9 9 9 9 9 10 11 9 9
8 7 8 8 9 9 8 7 7 9 10 8 7 8 8 7 6 6 5 4 3 4 6 7 6 5 7 5 7 6 4 4 5 5 5 6 6 5 4 4 5 5 5 5 6 6 6 6 5 4 4 2 4 5 6 8 7 7 7 4 4 4 5 7 8 6 2 1 2 3 3 3 2 4 5 8 9 9 9 10 10 11 12 10 9
13 10 8 10 9 9 8 8 7 7 8 8 7 7 6 6 6 6 5 4 4 5 7 7 8 8 8 7 6 6 6 5 6 5 5 6 7 5 5 4 5 5 5 5 6 6 5 5 4 4 4 3 5 6 8 9 8 7 7 6 3 6 5 7 8 8 7 2 4 3 0 2 3 4 5 2 6 10 12 11 10 10 10 10 9
12 9 8 11 11 10 9 8 9 8 8 8 8 7 5 7 6 6 5 5 5 8 9 8 10 9 9 8 9 8 5 5 5 5 4 4 5 6 5 5 5 5 5 6 6 6 5 4 5 5 6 6 6 8 8 7 7 6 6 7 6 3 5 4 8 9 11 9 3 3 3 4 1 3 5 1 4 7 10 11 11 10 10 10 9
11 9 9 11 10 9 9 9 9 8 9 7 7 6 7 6 7 6 5 5 6 8 9 9 9 11 10 9 8 6 5 4 4 4 3 4 4 2 5 5 5 5 5 5 5 5 6 6 6 7 7 7 7 7 7 7 8 8 6 5 6 5 5 6 6 7 10 11 11 8 4 2 2 3 3 2 3 4 6 9 10 9 8 10 9
9 7 7 13 12 10 10 10 9 9 8 7 7 7 6 6 7 7 6 5 6 7 8 9 9 8 9 8 7 7 7 3 3 4 4 4 4 5 5 5 5 5 5 5 6 6 7 7 7 7 7 6 6 7 8 7 6 5 5 7 6 5 6 9 7 4 4 9 8 8 9 7 4 4 2 2 4 5 6 7 8 9 8 9 10
13 12 7 12 13 14 13 11 9 9 8 8 8 7 7 7 7 7 6 6 5 6 7 8 10 8 8 7 6 6 5 6 5 4 3 3 6 5 5 5 5 5 5 6 6 6 6 7 7 7 7 6 7 7 7 5 6 6 6 7 8 8 8 9 8 8 7 4 5 8 7 6 7 7 4 1 1 3 4 1 3 8 5 6 8
13 13 11 9 12 10 10 10 9 9 9 9 8 8 7 7 7 6 5 6 6 7 8 6 8 8 8 8 7 5 6 6 5 4 5 4 6 5 5 5 5 5 5 6 6 6 6 6 6 7 7 7 6 7 7 7 8 8 9 10 10 9 9 7 9 8 9 7 6 7 5 6 5 5 5 3 5 4 2 5 8 5 3 4 7
10 11 11 7 7 8 9 9 9 8 8 9 9 8 7 7 8 8 6 5 5 6 7 7 7 8 8 8 10 7 6 6 4 5 5 4 6 5 4 5 5 5 5 5 6 5 6 6 6 7 6 6 6 7 8 9 8 9 10 9 10 10 9 10 10 8 8 8 8 6 8 6 6 7 9 9 4 6 3 7 9 10 8 7 6
9 9 9 8 6 8 10 11 9 8 8 9 9 8 8 7 8 8 6 5 5 6 7 8 7 7 8 9 10 10 8 8 7 6 5 5 6 4 4 4 3 5 5 5 5 5 6 6 6 6 6 6 7 8 8 8 8 9 9 11 11 11 9 10 11 10 8 9 9 8 8 8 7 7 6 7 6 5 7 7 8 6 6 6 5
9 9 10 11 10 11 9 10 10 9 10 10 8 9 8 7 8 9 6 6 5 6 7 7 7 7 8 10 10 9 9 7 8 7 6 6 5 5 3 4 3 4 5 6 5 5 5 6 6 7 7 7 8 7 8 8 8 9 9 9 9 9 9 10 9 10 9 8 8 7 8 7 7 7 5 6 6 5 3 5 7 7 3 1 3
10 10 10 11 11 11 11 10 10 10 10 10 9 8 8 8 9 10 7 5 6 6 7 6 7 7 8 9 9 8 7 8 8 7 6 7 6 5 5 5 3 5 5 5 3 4 5 6 7 7 7 7 8 8 8 9 9 9 9 10 10 10 9 9 9 9 8 8 7 6 7 7 7 5 5 5 5 3 4 7 5 3 3 5 2
10 9 11 9 12 12 13 12 10 9 10 10 10 9 8 8 8 10 8 5 6 6 7 7 7 7 8 9 8 8 8 8 7 8 6 5 6 5 5 5 5 4 4 4 3 4 5 5 6 7 7 8 9 9 9 9 9 9 9 10 9 8 9 9 9 8 8 7 5 7 7 7 6 6 5 6 6 6 6 6 7 4 2 4 2
10 8 11 10 10 12 11 10 10 9 10 10 9 9 9 9 9 10 9 6 7 7 7 8 7 8 8 8 8 7 8 7 6 6 7 7 5 6 5 4 5 4 5 3 3 5 5 6 7 8 7 8 8 9 9 9 9 9 9 9 9 8 9 9 8 8 8 7 7 6 6 6 6 6 6 6 5 5 5 5 6 11 7 1 7
10 9 11 12 10 11 11 11 10 10 11 10 11 9 9 9 9 9 9 7 7 7 7 8 8 7 8 9 9 9 8 7 6 5 5 6 7 7 6 4 5 4 3 4 4 5 7 7 8 8 8 8 8 9 9 8 8 9 9 9 10 6 8 9 7 7 7 7 6 5 7 7 6 6 6 6 6 5 5 5 6 5 7 9 8
11 10 11 13 10 10 11 12 11 11 10 11 10 9 11 11 10 9 8 6 7 7 8 8 8 9 8 9 9 9 9 9 8 7 7 5 7 7 6 5 4 4 5 4 5 5 6 7 8 8 8 8 8 9 9 9 8 9 9 9 9 6 7 7 6 7 6 5 6 7 7 7 6 5 6 6 6 5 5 5 5 5 4 3 7
12 10 11 11 10 11 10 10 11 12 12 11 10 7 10 10 11 11 8 9 7 8 8 8 9 9 8 8 8 8 8 8 8 9 7 7 7 7 6 6 4 4 4 4 5 6 7 8 8 8 8 8 8 8 9 9 8 8 8 7 6 6 7 6 6 6 6 5 6 6 6 7 6 6 6 5 5 5 5 6 5 5 4 5 3
11 12 12 12 11 12 11 11 10 11 12 11 9 8 9 9 9 10 10 8 8 7 7 6 7 7 7 8 8 8 7 7 6 7 7 8 8 7 6 5 5 4 5 5 6 6 7 7 7 7 8 8 8 8 8 8 8 8 6 7 6 6 6 6 4 5 4 6 6 7 6 6 5 6 5 5 5 5 6 5 5 5 5 3 3
12 12 13 14 12 12 13 14 12 12 12 11 10 8 10 9 9 8 8 7 7 8 8 8 6 8 7 7 6 7 7 7 6 7 7 8 8 8 6 6 5 5 5 5 6 6 7 7 7 8 8 7 8 7 8 8 7 7 6 6 5 6 6 6 4 4 5 6 6 7 5 5 4 4 5 5 5 5 4 5 5 5 3 3 3
12 12 12 14 13 11 11 12 12 11 10 10 9 10 9 9 9 10 11 9 8 7 8 7 7 7 8 8 7 7 7 6 6 6 8 8 7 6 6 6 5 5 5 7 7 7 7 7 7 7 7 7 8 7 6 7 7 7 6 6 5 6 6 5 5 5 5 5 6 5 4 3 3 4 4 5 5 5 4 5 4 5 5 3 2
13 12 11 12 11 11 11 11 11 11 11 11 9 10 10 9 9 9 9 9 10 8 7 7 6 7 8 7 7 6 7 7 8 7 8 8 7 7 6 6 7 4 6 7 7 6 6 8 8 7 7 7 7 7 6 7 7 7 6 5 6 6 5 5 5 5 4 4 4 4 3 3 3 4 4 4 4 5 4 5 5 5 5 6 2
13 12 12 11 11 12 12 14 13 12 12 11 10 9 9 9 9 9 10 9 8 8 7 7 7 7 7 6 7 6 7 8 9 7 8 8 7 6 6 8 6 5 5 6 6 7 7 8 8 7 7 7 7 6 5 6 6 7 7 5 5 5 6 6 5 4 4 3 4 3 3 3 3 4 4 4 3 4 4 4 5 3 4 5 5
11 10 10 11 11 11 11 13 13 11 12 12 10 9 9 9 9 9 10 10 8 8 7 7 7 7 7 7 7 6 7 7 8 7 9 7 7 6 6 8 6 5 7 5 6 7 7 8 8 7 7 6 6 6 5 5 5 6 7 6 6 5 5 5 4 4 4 3 4 4 3 3 3 4 4 5 4 4 4 4 4 5 4 6 5
13 13 12 12 12 13 12 12 12 11 10 11 11 10 9 9 8 9 9 9 8 7 8 8 8 8 7 8 7 7 7 7 8 7 9 8 7 7 6 7 7 6 5 6 5 5 7 7 8 7 6 6 5 5 6 5 4 4 5 6 6 5 5 4 4 4 4 3 3 4 2 2 3 4 4 4 5 5 4 4 5 5 5 5 6
15 14 14 14 13 12 12 12 11 12 11 11 11 10 9 9 8 8 10 9 8 7 8 8 8 9 8 8 7 7 8 8 8 8 8 8 7 6 6 5 7 8 6 5 6 5 6 7 6 6 6 5 4 5 5 5 4 4 4 5 5 5 4 4 4 4 4 3 4 3 2 1 3 3 3 4 4 5 4 4 5 6 6 6 6
16 15 13 12 12 14 14 13 12 12 11 11 11 10 9 9 9 7 8 9 8 8 8 8 8 8 8 7 7 7 8 8 8 8 7 7 7 6 6 6 5 7 7 6 5 6 4 6 5 5 5 5 5 5 5 4 4 4 4 5 5 5 4 4 3 4 3 3 3 3 2 1 1 1 3 4 4 5 5 5 4 5 5 5 7
11 12 14 15 15 14 14 14 13 12 11 10 9 10 11 11 11 9 9 8 7 9 9 8 8 8 8 8 7 7 8 8 7 8 7 7 7 6 6 5 6 7 6 5 5 6 4 5 5 5 4 4 5 5 4 4 4 4 5 4 4 4 4 3 3 3 3 3 3 2 2 1 1 1 2 3 3 5 5 6 6 4 5 6 6
15 16 16 15 15 14 15 14 13 13 13 12 10 9 8 8 9 9 9 9 9 10 9 9 9 9 8 7 7 6 7 8 8 8 8 7 7 7 6 6 6 6 5 5 4 5 6 6 5 4 4 4 5 4 3 4 5 4 4 4 4 4 4 4 3 4 3 2 1 2 2 2 2 4 5 6 6 5 3 5 7 4 5 5 6
16 16 16 15 15 15 15 14 13 14 14 13 11 10 10 11 10 9 9 9 10 10 10 10 9 9 8 7 7 7 7 8 9 9 8 8 7 7 7 7 6 6 5 5 5 4 5 5 6 4 4 4 4 2 3 4 4 4 4 3 4 4 4 4 4 4 3 2 1 0 2 3 3 5 6 7 10 11 10 5 4 4 4 5 5
16 16 15 15 15 14 14 14 15 15 15 14 12 11 10 10 10 10 11 10 10 10 9 10 10 9 8 8 8 7 8 9 8 8 8 8 8 7 7 7 7 6 6 4 4 5 4 4 5 5 5 4 3 2 3 4 4 6 4 4 4 3 3 3 4 4 3 1 0 2 3 4 4 5 4 7 11 11 11 11 12 11 8 4 4
16 15 14 14 15 16 16 16 15 14 14 12 12 12 12 12 11 10 10 10 10 10 10 9 10 9 9 9 8 8 9 9 9 9 9 8 8 8 7 7 7 6 5 4 5 4 4 4 4 5 4 4 3 3 4 5 4 5 6 5 3 4 4 2 1 1 2 2 1 2 3 3 3 4 4 4 8 11 11 11 11 11 11 12 9
17 17 17 17 18 18 16 15 14 14 14 13 13 13 13 12 12 10 10 10 10 10 10 10 10 10 9 9 9 9 9 9 9 9 9 8 8 8 7 7 7 5 5 5 4 4 4 3 5 5 4 3 3 4 5 6 7 8 9 7 4 3 5 3 2 2 2 2 1 2 3 4 3 7 5 4 4 7 9 11 10 9 10 11 12
17 17 18 17 14 12 13 15 15 15 14 12 13 14 13 13 13 11 11 10 11 10 10 10 10 10 10 9 9 10 9 9 9 9 9 9 8 8 7 6 6 5 6 5 4 4 4 4 4 5 4 3 3 4 6 8 10 9 9 8 4 5 4 3 2 2 3 3 2 2 3 6 6 5 4 4 5 5 6 6 6 6 6 8 11
16 15 14 13 14 13 12 13 13 13 11 10 7 5 6 7 9 11 10 11 10 11 10 10 10 10 10 9 10 10 10 9 10 10 9 9 8 7 7 6 6 7 7 6 6 5 4 4 4 4 5 4 2 3 6 9 10 10 9 7 5 5 4 3 2 1 2 2 2 2 3 4 5 6 5 5 5 6 5 6 6 7 6 6 6
16 18 17 16 16 17 17 16 13 13 12 11 11 10 12 11 10 11 10 10 11 11 11 10 11 10 11 10 11 10 10 10 10 10 10 9 8 9 8 6 6 5 4 4 3 3 5 5 4 4 6 4 2 3 6 9 9 8 8 5 5 5 4 4 3 2 1 1 1 3 3 4 5 6 8 10 8 5 4 4 6 7 8 7 6
18 18 18 18 16 15 14 13 13 13 13 12 11 11 10 10 11 10 11 10 10 11 11 11 11 11 11 11 11 11 11 11 10 10 10 9 9 8 7 6 7 6 5 5 4 4 4 5 4 4 6 4 3 2 6 8 8 8 6 5 4 5 4 4 2 1 1 1 2 2 2 3 5 6 9 10 10 7 4 5 5 6 7 7 8
14 11 10 10 11 11 11 13 14 13 12 12 12 12 12 11 10 10 11 11 11 12 12 12 11 11 11 11 11 12 11 11 10 11 10 9 8 7 7 6 8 7 6 5 4 4 3 4 5 5 5 6 3 3 6 8 8 7 6 5 4 5 3 2 1 1 2 2 3 4 5 3 4 6 10 10 8 5 4 4 5 6 7 7 8
12 15 15 13 12 14 14 13 14 14 12 13 13 14 13 13 12 11 11 11 12 12 12 12 11 11 10 10 10 11 11 11 10 10 10 10 9 9 7 6 6 6 6 5 4 5 4 2 3 4 6 6 4 3 5 7 7 7 5 3 5 5 4 2 1 1 2 2 3 3 5 5 5 7 11 10 8 5 4 4 4 4 6 8 8
10 8 11 14 13 13 13 14 15 14 14 15 15 13 13 13 12 12 12 12 13 12 10 9 10 10 10 9 9 10 10 11 10 9 8 9 7 7 8 7 6 6 6 5 4 5 5 3 2 2 3 4 4 3 2 4 4 5 6 4 3 5 4 1 0 0 2 4 4 5 5 7 10 11 11 10 9 6 4 3 3 4 6 8 8
13 12 12 11 13 16 17 17 14 14 14 14 14 14 13 12 12 12 13 13 11 10 10 10 10 10 10 10 9 10 11 9 9 9 8 8 8 8 8 7 7 6 5 5 4 4 4 3 2 1 2 2 2 3 2 3 4 4 5 5 3 3 3 2 1 0 0 2 6 6 6 7 10 12 11 9 8 8 6 3 3 4 3 6 8
7 12 14 13 12 12 12 11 12 14 15 14 14 14 13 13 12 13 13 9 10 11 10 11 11 11 11 10 10 9 10 9 8 9 9 8 6 8 8 7 7 6 6 6 4 4 4 3 2 1 1 3 2 2 2 2 3 4 5 5 4 2 3 3 1 0 1 2 3 5 6 8 12 11 10 8 7 7 7 3 5 7 9 11 7
13 12 12 14 13 13 14 13 12 14 14 14 15 15 13 12 14 14 10 11 11 11 11 11 11 11 11 10 10 11 10 8 9 9 10 9 7 8 7 8 8 7 7 7 5 4 4 4 3 2 2 2 2 0 2 1 3 5 5 5 5 3 4 2 2 0 1 3 3 4 6 9 11 11 9 7 6 6 5 4 8 9 9 10 7
12 15 15 14 13 13 13 11 12 13 13 14 15 14 13 13 15 10 10 10 11 11 11 11 10 11 10 10 10 11 10 9 10 10 10 10 8 8 8 8 8 8 7 7 6 5 4 4 5 5 4 3 3 1 1 3 2 4 5 6 6 5 5 4 2 1 2 3 5 5 6 11 11 10 8 6 5 4 3 7 8 9 9 7 5
16 15 14 14 15 15 13 12 12 14 13 14 13 15 14 15 10 10 12 13 12 12 11 11 11 11 11 10 9 10 10 10 10 11 10 9 9 9 8 7 8 7 7 7 6 6 6 6 5 6 5 5 4 3 2 2 4 4 5 6 6 6 6 5 1 1 1 3 6 9 11 10 10 7 6 5 5 6 7 7 7 8 7 6 6
12 12 14 13 12 12 13 13 12 13 13 13 13 14 17 14 11 12 12 13 13 13 12 12 11 10 11 11 11 10 10 10 10 9 10 10 11 10 9 8 7 7 7 7 6 6 6 6 6 5 6 6 5 3 4 3 3 4 4 5 6 6 6 4 2 3 6 7 8 9 9 8 5 4 3 3 3 4 8 7 6 5 4 5 5
17 15 14 12 12 12 13 13 13 12 12 12 13 12 13 11 13 12 12 13 13 13 12 11 11 11 10 11 12 10 9 9 10 8 8 8 8 8 8 8 8 8 8 7 7 7 6 6 6 6 5 5 4 5 5 4 4 4 4 3 3 3 3 1 1 2 3 3 4 3 4 6 6 7 4 4 3 5 4 5 4 3 3 3 3
10 12 14 12 13 13 13 13 13 12 12 12 12 11 10 10 10 11 12 13 13 13 13 12 13 11 10 11 11 13 13 9 9 9 9 8 8 8 8 10 10 10 9 8 8 8 8 7 7 6 5 4 5 5 6 6 7 6 6 4 4 3 3 2 2 3 4 4 2 3 3 2 3 3 4 5 6 4 3 3 5 4 4 3 4
12 12 13 14 13 14 15 14 13 11 11 11 10 9 10 12 12 12 13 13 12 12 11 11 11 10 10 9 9 10 10 10 9 9 9 10 11 10 9 8 6 6 8 9 8 7 7 7 7 7 7 6 5 7 9 9 8 8 8 7 6 7 5 3 4 3 3 2 2 4 6 6 5 5 4 6 6 6 7 5 4 4 5 5 5
10 11 11 12 13 14 14 13 11 11 11 11 10 8 10 11 12 12 13 13 12 11 11 11 10 10 10 9 8 9 9 9 10 9 8 4 2 6 9 8 8 9 12 13 11 9 9 8 7 7 8 10 9 12 13 12 12 11 11 10 9 6 5 4 3 2 1 1 2 3 3 3 5 5 6 5 6 5 5 6 6 5 4 5 5
11 10 9 10 10 11 12 12 11 10 11 11 10 9 10 10 11 12 13 13 13 11 10 9 10 10 11 11 10 9 9 9 8 9 8 8 5 2 4 1 5 10 12 11 11 12 12 12 11 8 8 12 11 9 9 13 13 13 12 11 8 6 5 5 4 1 0 0 2 4 6 3 3 4 4 6 6 4 6 5 6 6 6 5 5
Wind_Direction
152 131 123 125 125 123 118 110 108 107 108 118 119 122 128 131 132 130 136 142 134 131 125 126 117 90 84 98 101 98 95 87 74 65 70 65 60 56 53 49 51 61 58 65 71 82 78 72 67 46 48 64 64 54 38 50 48 59 75 58 57 52 28 6 357 344 19 359 16 26 27 43 65 60 57 50 45 38 36 40 32 29 24 22 15
141 132 138 136 135 132 124 120 125 129 137 136 140 139 138 142 140 137 138 141 126 125 129 108 67 102 121 117 112 98 95 93 90 73 76 74 69 64 55 48 53 55 57 58 67 67 70 64 55 43 43 65 73 73 57 50 42 40 35 65 44 63 48 12 356 11 30 49 351 344 2 13 67 63 61 47 46 41 37 40 34 29 24 18 14
162 158 155 146 134 131 127 131 141 140 141 144 138 133 143 147 143 143 148 140 118 108 87 83 102 118 116 120 116 100 57 79 89 81 79 77 67 65 62 55 59 56 52 58 64 58 63 66 59 55 50 67 79 55 46 45 39 38 33 63 56 44 61 27 20 29 37 325 106 76 18 351 319 21 53 54 48 44 40 39 34 29 22 17 15
176 169 155 146 130 133 134 142 137 134 141 139 139 140 146 146 147 146 142 127 121 97 89 117 115 104 98 107 94 96 113 91 83 70 64 67 60 52 51 54 55 61 58 68 72 68 71 81 89 74 66 64 76 67 51 46 36 33 33 32 66 66 33 38 27 26 36 21 36 66 249 68 358 345 355 350 52 49 42 34 29 26 19 17 16
169 158 155 152 147 142 148 143 139 145 148 147 149 155 156 148 142 141 135 129 116 113 122 127 116 104 102 92 95 93 74 83 77 57 46 66 67 45 33 38 51 53 51 58 71 76 77 83 83 76 69 54 62 64 58 52 47 42 37 47 42 105 77 64 39 34 41 35 86 61 24 30 87 276 327 310 18 45 40 37 26 19 19 15 17
176 167 168 149 116 142 153 146 148 149 150 152 152 146 141 138 133 128 123 119 120 129 135 135 130 130 129 125 121 113 112 105 105 115 80 58 66 49 44 37 44 52 45 52 62 73 72 68 67 67 61 56 59 65 63 56 46 44 34 51 55 38 103 70 55 40 48 46 48 62 84 133 304 300 33 313 7 71 55 39 26 13 17 15 15
185 188 172 154 157 153 156 159 155 148 147 141 136 133 134 138 135 135 132 126 130 137 142 133 128 132 134 133 134 138 131 85 78 82 94 78 66 56 45 36 35 51 47 48 55 62 66 62 66 66 65 64 63 66 62 58 55 52 45 55 54 56 60 70 50 357 40 43 42 57 63 54 32 43 18 305 347 326 28 22 18 9 5 18 15
183 189 187 166 166 169 163 157 152 148 137 135 135 135 139 138 133 129 130 133 136 138 137 140 136 138 127 121 120 122 123 124 119 106 90 86 72 53 50 41 34 36 47 46 50 61 68 66 67 70 72 68 70 66 68 63 66 59 60 61 63 57 59 70 64 39 59 17 24 44 44 50 49 52 31 40 240 285 310 1 38 0 356 18 12
186 188 188 174 166 168 159 152 143 137 140 142 143 140 134 129 123 119 125 136 136 140 135 134 135 135 130 126 117 108 115 116 115 102 92 80 80 55 58 47 45 41 46 58 55 64 72 79 75 76 76 73 74 74 69 69 70 69 61 57 59 57 57 64 66 53 50 36 27 22 34 38 41 56 47 33 52 352 286 14 345 343 339 22 15
190 196 188 177 156 152 150 138 138 143 137 135 133 132 133 129 128 130 147 135 135 134 131 129 130 128 126 128 127 126 118 103 98 100 91 85 81 65 53 54 49 53 49 57 68 67 75 76 78 78 80 81 77 79 79 73 69 68 64 66 64 66 55 59 65 61 58 51 49 39 40 12 32 24 26 17 27 68 1 329 345 349 357 334 354
186 187 183 179 155 139 141 142 139 138 135 135 135 135 137 139 136 135 140 125 128 133 133 133 133 134 133 137 136 135 131 128 120 102 98 82 85 71 64 53 48 58 62 58 64 70 77 80 82 81 79 80 79 78 77 78 73 72 69 67 64 67 66 66 67 61 62 58 51 48 52 49 55 49 17 18 33 7 348 342 338 353 323 329 354
181 176 169 167 155 146 142 138 145 142 140 140 140 138 143 142 138 132 131 130 128 132 129 135 138 135 136 139 138 137 137 133 126 123 114 109 107 102 83 69 54 57 59 67 62 72 80 79 79 81 82 82 80 83 80 78 76 74 71 71 69 67 68 70 68 68 64 67 60 53 56 55 51 47 29 30 28 19 4 314 336 330 323 304 320
179 174 178 165 158 153 142 146 147 152 150 145 141 138 139 141 142 134 134 134 133 132 131 132 130 135 138 134 128 127 124 124 124 122 130 128 131 122 113 104 89 75 65 76 68 77 86 83 81 84 86 83 86 83 82 80 80 79 77 74 72 70 70 73 74 70 71 70 70 61 61 55 49 37 38 33 21 6 16 355 333 310 287 304 308
178 174 172 166 157 157 152 156 154 153 149 143 138 140 143 142 140 132 133 132 129 125 127 124 124 126 127 127 126 125 124 128 131 133 140 134 132 128 123 121 107 104 94 91 99 87 77 85 90 88 88 89 87 86 85 84 83 82 79 78 75 74 74 76 78 77 73 70 70 70 59 54 48 36 34 35 28 21 18 14 328 320 262 299 307
176 176 164 163 163 157 156 156 153 152 146 140 141 145 142 139 133 128 124 129 125 125 120 118 118 118 119 121 120 122 126 129 133 138 139 135 130 120 116 111 108 108 102 111 97 93 96 89 89 88 86 85 85 85 85 83 84 84 80 80 76 75 77 78 76 77 73 69 63 65 64 52 43 34 32 32 28 34 30 2 11 1 348 340 358
175 169 156 155 160 159 155 154 152 151 147 142 143 147 141 135 129 128 129 130 124 120 117 120 119 118 120 120 123 126 128 125 124 128 130 134 132 125 121 114 110 105 103 101 90 97 92 89 86 87 88 86 87 88 88 89 88 86 82 80 81 77 82 78 77 75 71 67 68 62 60 49 38 32 30 26 28 23 27 23 25 47 25 340 337
176 171 161 152 157 157 153 153 152 149 148 146 147 150 138 129 125 119 116 112 115 117 119 119 120 117 117 121 126 128 133 137 138 138 137 134 126 118 115 118 107 104 107 102 100 90 89 91 91 88 86 87 86 87 91 92 90 90 90 90 89 84 86 84 79 76 73 71 67 60 63 55 39 32 30 26 20 19 23 25 40 48 31 24 346
175 169 160 152 158 154 149 149 151 149 145 141 142 143 133 128 130 126 126 123 123 122 121 124 121 116 119 119 123 130 132 132 135 137 137 129 116 108 110 104 103 104 104 102 95 89 85 87 90 89 88 86 89 91 94 95 94 90 92 93 98 94 89 84 78 81 74 72 66 59 55 53 35 37 32 20 21 21 20 18 20 17 38 27 347
166 163 162 162 167 160 154 149 146 142 140 137 134 134 124 122 128 131 133 131 131 124 118 112 114 117 120 125 127 125 125 127 131 131 131 122 114 112 108 111 101 99 99 97 91 88 88 83 87 88 86 87 88 93 95 95 97 99 97 99 94 92 90 84 80 82 75 72 66 62 52 50 37 34 27 21 20 18 11 12 5 8 6 23 340
168 164 165 165 166 161 157 150 148 146 143 140 140 133 126 127 122 117 115 119 119 119 120 117 115 114 114 111 112 122 126 129 131 132 125 117 114 114 115 106 111 102 96 93 91 92 92 90 85 88 86 85 88 91 94 96 95 99 103 97 93 93 91 90 77 66 75 69 68 63 50 49 34 37 25 19 13 9 9 2 357 347 345 350 327
169 164 164 161 160 157 153 145 140 142 141 137 142 136 131 129 130 134 132 131 124 125 121 121 118 117 119 123 126 125 124 121 118 120 114 109 108 109 109 117 105 98 103 93 93 92 90 90 88 84 87 91 96 95 95 99 98 98 94 98 98 95 95 89 84 68 59 68 71 68 55 38 33 43 20 11 8 1 0 359 346 348 337 329 322
166 161 161 157 153 150 147 140 138 146 148 142 140 135 138 138 140 136 130 135 133 132 128 125 120 121 122 125 125 124 124 122 117 114 109 108 108 111 115 105 99 100 101 99 97 95 93 92 89 86 87 89 91 96 100 99 102 99 97 103 104 99 92 84 81 76 63 67 77 79 49 36 29 37 14 10 0 354 358 352 348 341 322 315 296
164 159 159 157 155 153 153 148 149 155 150 143 144 144 143 143 143 145 139 140 136 132 128 125 123 121 120 123 125 125 124 121 116 113 110 110 109 110 111 106 103 99 89 98 102 98 95 92 89 87 89 88 90 93 93 102 102 104 106 106 110 108 105 99 90 86 88 87 75 75 53 37 19 26 7 356 355 350 343 346 333 326 318 308 308
157 151 153 156 156 151 151 151 151 157 153 151 151 145 145 148 149 145 140 136 132 132 128 123 119 117 121 123 123 125 121 119 113 115 112 110 109 108 110 105 107 102 97 88 93 97 94 93 92 89 89 93 92 92 88 88 103 109 109 111 109 106 105 107 107 108 103 97 101 75 45 37 25 30 3 353 347 340 340 336 329 323 315 310 305
156 154 155 157 157 157 160 159 156 158 158 151 152 153 151 150 150 145 138 137 132 132 128 126 125 124 126 126 127 126 122 115 112 113 112 110 111 109 108 113 108 98 97 97 83 88 92 91 96 99 96 91 95 98 94 86 78 93 110 116 116 115 116 118 125 132 129 115 95 96 95 51 39 32 358 355 335 340 332 331 325 315 317 309 311
161 156 157 164 165 160 158 160 158 160 159 157 155 153 151 149 150 145 142 139 136 132 131 128 128 128 132 131 131 127 123 116 114 114 114 113 111 109 107 102 109 103 89 83 92 81 96 96 95 96 96 96 92 91 90 92 91 96 102 111 117 119 121 124 129 130 130 128 118 124 117 86 44 30 347 327 330 329 325 328 324 320 318 316 313
163 163 162 159 163 167 166 163 160 159 159 161 158 153 151 149 146 146 144 138 136 133 132 131 134 134 134 136 136 133 124 117 117 117 115 111 110 111 109 106 101 103 101 96 88 91 83 97 96 95 95 101 92 84 88 87 90 96 107 111 110 111 114 123 136 136 129 121 122 137 152 140 31 334 330 327 323 329 326 321 314 309 309 314 313
155 157 161 169 172 168 167 167 163 161 160 160 161 158 157 157 154 153 149 141 139 135 136 137 139 138 139 139 138 131 120 118 118 117 113 112 110 107 104 103 100 97 98 102 106 102 95 90 91 93 94 97 95 88 84 88 89 105 114 114 121 125 125 120 116 98 98 115 149 170 169 208 237 261 283 308 314 313 323 320 314 311 310 313 308
166 170 171 170 172 172 170 168 165 160 162 161 159 158 152 150 149 154 149 146 141 138 141 142 142 142 144 141 134 126 119 120 121 118 116 114 111 110 108 105 102 99 94 93 94 103 106 93 80 85 85 79 85 84 91 106 107 93 115 128 131 132 136 128 103 81 77 93 144 192 212 235 260 350 331 326 320 316 298 301 310 314 308 304 305
173 174 175 176 175 172 171 165 164 166 164 163 163 162 158 155 156 156 148 146 143 146 146 146 146 145 142 139 135 128 124 123 125 124 123 120 117 116 113 108 104 101 100 98 95 91 94 104 103 87 78 75 71 65 60 71 90 122 118 115 114 139 146 141 131 104 75 76 74 240 260 261 329 306 316 328 334 333 327 309 283 295 289 301 300
178 177 177 176 174 172 168 169 170 170 170 167 166 160 156 156 158 160 154 153 147 147 148 149 146 145 141 137 134 131 129 130 129 125 125 123 121 119 114 112 109 106 104 104 99 97 94 95 100 100 85 73 57 50 58 80 89 115 111 102 116 135 144 147 149 133 129 134 272 311 303 300 319 329 311 331 334 330 326 325 326 322 323 315 317
178 179 176 175 176 176 176 175 171 171 171 169 164 160 160 162 162 164 156 151 146 147 148 148 145 144 142 142 138 134 131 131 131 131 129 126 122 120 118 119 116 110 105 100 96 100 103 103 97 87 82 73 60 38 75 86 102 109 113 118 122 127 135 144 60 77 134 161 245 306 300 306 316 312 333 333 326 323 323 324 324 324 326 333 337
180 178 180 181 182 182 177 171 169 173 175 175 167 164 167 162 164 164 151 153 149 150 148 145 147 146 145 142 140 136 134 135 136 134 130 129 126 122 124 125 123 122 112 108 117 112 110 105 100 96 81 64 65 47 85 97 101 100 101 98 86 100 119 116 110 110 155 182 235 299 314 331 325 345 336 320 322 319 323 323 321 323 333 335 332
182 183 183 184 179 177 176 175 175 175 175 169 169 172 170 166 161 153 155 154 147 149 148 147 148 149 147 145 142 138 138 139 138 135 133 132 131 132 132 129 123 117 118 118 120 122 123 112 112 107 100 82 71 64 106 106 98 96 96 96 93 92 94 102 116 151 169 200 227 246 327 336 333 339 318 323 328 320 322 324 329 334 331 324 325
183 183 183 181 180 176 170 169 172 170 165 155 155 140 131 141 148 151 157 152 151 148 150 151 152 151 148 147 143 140 138 141 141 138 136 135 133 131 133 136 135 138 140 145 147 139 134 122 116 114 105 83 59 80 104 98 99 99 95 94 92 89 88 83 71 76 186 212 237 257 298 314 322 322 308 338 333 324 320 321 330 333 326 322 316
186 185 184 179 179 178 175 175 169 164 164 165 164 157 157 162 160 157 153 151 148 150 151 154 155 158 155 152 146 144 143 144 143 142 140 139 139 142 142 141 128 121 117 119 125 124 127 125 121 116 104 91 60 80 102 101 102 102 99 94 93 92 92 85 65 47 30 294 265 265 286 314 316 309 314 336 339 316 315 333 339 329 330 326 323
187 183 184 184 179 176 173 164 166 166 162 165 156 155 157 153 155 155 151 151 152 157 160 162 160 161 159 156 152 148 147 148 147 145 145 144 143 142 139 134 127 135 138 148 158 144 141 132 128 120 111 110 101 103 103 100 103 112 104 99 100 93 86 84 65 5 337 346 326 296 292 312 308 308 317 336 332 330 340 347 339 333 323 329 324
179 177 171 170 172 167 164 166 165 166 164 158 156 155 152 155 157 157 157 158 163 167 167 166 164 164 160 158 156 151 150 151 151 151 150 147 145 140 144 145 143 146 150 163 150 130 136 138 131 134 134 127 132 135 120 107 104 104 115 124 121 111 92 69 28 345 338 329 298 333 336 315 310 308 322 328 344 339 357 340 345 337 335 333 333
176 173 171 168 168 167 165 164 165 167 163 156 157 156 156 162 163 164 164 166 173 170 171 169 165 161 156 156 157 155 152 153 154 153 150 149 153 154 148 140 142 142 152 152 139 131 129 120 134 144 141 128 141 136 115 110 110 111 112 113 118 112 101 58 24 338 304 301 325 338 318 313 308 317 323 335 351 344 345 346 331 334 339 339 328
173 174 171 165 158 155 167 170 171 169 159 159 158 161 165 165 168 165 168 175 178 175 165 155 154 156 154 155 158 157 155 155 152 147 149 149 146 140 145 146 148 147 150 152 138 136 139 156 169 156 137 145 139 147 122 123 120 122 125 119 121 110 122 132 360 295 343 335 340 323 323 326 328 328 330 334 341 345 347 335 348 356 342 332 323
167 164 152 160 169 172 174 172 170 162 160 162 161 161 166 167 165 169 180 182 169 153 155 156 154 153 154 156 159 159 155 153 149 148 146 144 148 148 146 148 149 150 146 147 147 146 140 156 177 178 154 176 165 155 172 162 157 153 147 132 126 127 155 144 143 340 322 319 319 318 314 312 318 324 323 333 336 345 352 351 359 343 308 303 321
159 158 161 165 170 174 170 166 163 160 160 161 163 166 168 166 167 183 186 158 152 156 154 153 158 160 159 160 159 153 151 148 145 141 143 144 147 146 150 151 148 152 159 163 160 153 153 165 190 193 201 218 247 174 193 199 187 170 166 151 132 183 170 137 121 328 320 299 283 295 304 305 313 314 316 330 337 346 350 8 337 324 330 343 342
156 164 173 165 168 172 174 167 161 162 163 164 165 167 169 168 178 186 162 154 157 155 155 157 159 160 162 161 157 153 152 150 151 152 146 148 149 148 151 153 154 160 164 167 165 160 154 161 181 221 240 244 253 255 179 205 209 188 177 177 178 174 208 173 139 246 270 278 282 285 281 288 302 309 314 327 346 343 354 340 330 344 342 341 340
169 169 169 168 170 170 168 164 161 164 165 166 168 167 168 173 188 163 150 151 151 153 154 158 161 162 161 161 158 157 153 154 154 154 152 148 154 155 156 162 163 164 168 167 173 163 160 163 180 211 224 244 240 227 241 222 220 205 182 180 183 198 192 201 177 196 239 255 287 285 290 301 306 304 309 342 341 342 332 329 338 342 346 347 346
164 169 170 172 172 170 165 161 164 165 166 167 170 167 168 181 173 147 157 156 154 154 159 164 165 165 164 160 156 157 158 157 160 157 157 159 158 159 159 169 164 169 170 172 176 169 172 183 181 197 213 219 229 213 235 224 222 235 196 187 192 191 212 188 182 263 253 259 269 278 288 295 292 293 340 348 346 330 328 326 339 342 346 351 352
160 165 170 170 162 160 159 161 165 167 166 168 172 171 174 180 157 160 159 155 153 157 164 168 167 164 162 157 157 160 161 162 161 166 165 166 166 170 169 169 172 173 174 174 174 175 183 183 194 200 205 210 209 203 222 229 215 232 219 211 206 203 203 203 212 250 259 273 271 275 282 290 311 342 344 346 323 311 311 316 334 343 341 342 347
171 169 158 160 159 158 162 162 164 170 168 172 174 180 178 159 160 160 157 155 158 162 165 164 166 163 160 160 160 163 164 164 164 165 165 166 168 171 170 172 179 178 178 178 175 181 187 190 197 203 204 203 207 210 217 225 235 235 240 221 228 228 226 209 283 261 276 263 263 279 314 318 303 296 287 264 277 315 321 332 338 328 321 323 324
160 156 162 156 159 159 161 165 168 171 170 173 176 174 159 153 157 155 154 155 159 164 166 171 166 161 163 165 166 164 162 164 169 166 164 166 170 176 178 183 184 182 178 184 183 187 189 190 198 195 188 194 216 220 221 218 223 217 225 222 237 233 207 195 260 282 282 290 301 322 324 336 341 1 346 350 343 337 307 305 315 316 318 312 314
159 166 164 163 159 163 168 168 169 169 168 170 173 161 152 155 158 158 155 158 164 166 166 161 159 158 163 167 165 166 168 166 169 172 177 174 176 183 187 191 197 183 184 180 183 189 191 195 189 182 178 198 210 221 228 207 207 200 195 203 222 225 212 216 232 267 308 327 358 358 2 352 8 345 327 323 320 327 318 314 307 321 326 330 338
155 158 164 162 167 162 164 167 166 166 167 168 163 155 157 161 159 160 158 161 162 162 161 162 162 164 163 163 163 168 170 170 169 171 167 166 182 190 189 182 191 201 197 193 179 187 193 184 187 202 187 184 198 216 214 194 208 209 209 206 215 202 185 190 215 254 167 351 347 345 317 309 308 329 316 301 294 299 301 310 314 314 325 329 336
153 151 158 161 162 161 159 161 164 165 166 166 161 157 158 162 163 162 164 163 159 159 161 161 163 167 168 167 166 169 174 171 167 162 167 169 143 51 24 245 214 195 197 203 200 209 192 183 182 199 217 228 230 233 200 197 205 211 209 214 219 204 192 202 189 107 26 338 302 313 297 294 270 268 272 269 267 278 277 285 291 302 305 306 309